Terminal Aerodrome Forecast
Issued by NWS

Home | Current Version | Previous Version | Text Only | Print | Product List | Glossary On
Versions: 1 2 3 4 5 6 7 8 9 10 11 12 13 14 15 16 17 18 19 20 21 22 23 24 25 26 27 28 29 30 31 32 33 34 35 36 37 38 39 40 41 42
000
FTUS41 KBOX 132333
TAFMHT
TAF
KMHT 132333Z 1400/1424 18011G22KT P6SM SCT040 BKN100
     FM140200 18010KT P6SM -SHRA BKN040
     FM140500 18008KT P6SM OVC070
     FM140900 19004KT P6SM BKN020
     FM141200 21004KT P6SM BKN070
     FM142100 21007KT P6SM -SHRA BKN070=

USA.gov is the U.S. government's official web portal to all federal, state and local government web resources and services.